C/2020 M5 (ATLAS) |
Classification: Comet SPK-ID: 1003701 |
[ hide orbit diagram ]
For accurate long-term ephemerides, please instead use our Horizons system.This orbit viewer was implemented using two-body methods, and hence should not be used for determining accurate long-term trajectories (over several years or decades) or planetary encounter circumstances.
Orbital Elements at Epoch 2459078.5 (2020-Aug-17.0) TDB
Reference: JPL 8 (heliocentric ecliptic J2000)
Element | Value | Uncertainty (1-sigma) | Units |
e | .9995105563329261 | 1.1267e-05 | |
a | 6138.776417230311 | 141.33 | au |
q | 3.004585240996165 | 2.1411e-05 | au |
i | 93.22241485552125 | 8.691e-05 | deg |
node | 352.097952069952 | 0.00012682 | deg |
peri | 126.3364543440795 | 0.00049636 | deg |
M | 359.9992460921695 | 2.6038e-05 | deg |
tp | 2459446.406028584438 (2021-Aug-19.90602858) | 0.0016459 | TDB |
period | 175679525.9819835 480984.33 | 6.0667e+06 1.661e+04 | d yr |
n | 2.049185856961608E-6 | 7.0765e-08 | deg/d |
Q | 12274.54824921963 | 282.58 | au |
|
| | Orbit Determination Parameters
Additional Information
|
[ show covariance matrix ]
Alternate Designations
Perihelion Year (est.) | New-Style Desig | Roman Numeral | Year/ Letter | 2021.6 | C/2020 M5 | | |
|
|